Location: Chochol
(49.7771°N, 14.9780°E)
Time: 17:56:50
(UTC+00:00)

SPOT 3 Rocket - Pass Details

Date: 09 April 2020
Orbit: 778 x 795 km, 98.8° (Epoch: 25 May)

Event Time Altitude Azimuth Distance (km) Brightness Sun altitude
Exits shadow 19:22:44 - 178° (S) 2,781 6.1 -15.3°
Reaches altitude 10° 19:23:49 10° 181° (S) 2,355 5.7 -15.4°
Maximum altitude 19:28:56 55° 259° (W) 947 4.2 -16.1°
Drops below altitude 10° 19:34:03 10° 337° (NNW) 2,363 6.9 -16.8°
Sets 19:36:26 0° 342° (NNW) 3,294 7.7 -17.1°
